TimeMDT,TemperatureF,Dew PointF,Humidity,Sea Level PressureIn,VisibilityMPH,Wind Direction,Wind SpeedMPH,Gust SpeedMPH,PrecipitationIn,Events,Conditions,WindDirDegrees,DateUTC
12:53 AM,44.1,-0.9,15,29.87,10.0,ENE,10.4,-,N/A,,Clear,60,2013-05-01 06:53:00
1:53 AM,41.0,-0.9,17,29.89,10.0,ESE,5.8,-,N/A,,Clear,120,2013-05-01 07:53:00
2:53 AM,37.9,1.0,21,29.93,10.0,SE,8.1,-,N/A,,Clear,130,2013-05-01 08:53:00
3:53 AM,37.9,25.0,60,29.95,10.0,Calm,Calm,-,N/A,,Scattered Clouds,0,2013-05-01 09:53:00
6:53 AM,36.0,10.9,36,30.04,10.0,East,8.1,-,N/A,,Clear,90,2013-05-01 12:53:00
8:53 AM,41.0,1.9,20,30.09,10.0,ESE,13.8,-,N/A,,Clear,110,2013-05-01 14:53:00
9:53 AM,45.0,3.0,18,30.09,10.0,ESE,15.0,-,N/A,,Clear,110,2013-05-01 15:53:00
10:53 AM,48.0,-2.9,12,30.12,10.0,NNE,8.1,20.7,N/A,,Clear,30,2013-05-01 16:53:00
12:28 PM,50.0,3.2,15,30.21,10.0,NNE,15.0,24.2,N/A,,Scattered Clouds,20,2013-05-01 18:28:00
12:53 PM,50.0,3.0,15,30.16,10.0,East,4.6,20.7,N/A,,Mostly Cloudy,100,2013-05-01 18:53:00
1:53 PM,48.9,9.0,20,30.19,10.0,NNE,20.7,26.5,N/A,,Mostly Cloudy,20,2013-05-01 19:53:00
2:29 PM,50.0,5.0,16,30.24,10.0,NNW,13.8,-,N/A,,Scattered Clouds,340,2013-05-01 20:29:00
3:53 PM,50.0,12.0,22,30.24,10.0,North,15.0,25.3,N/A,,Scattered Clouds,360,2013-05-01 21:53:00
4:53 PM,46.9,24.1,41,30.30,10.0,North,26.5,34.5,N/A,,Clear,360,2013-05-01 22:53:00
5:53 PM,46.9,21.9,37,30.33,10.0,NNE,19.6,26.5,N/A,,Clear,30,2013-05-01 23:53:00
6:53 PM,46.0,15.1,29,30.35,10.0,NNE,16.1,25.3,N/A,,Clear,20,2013-05-02 00:53:00
7:53 PM,42.1,19.0,40,30.39,10.0,NE,18.4,26.5,N/A,,Clear,40,2013-05-02 01:53:00
8:53 PM,39.0,21.0,49,30.45,10.0,North,15.0,26.5,N/A,,Partly Cloudy,10,2013-05-02 02:53:00
9:53 PM,39.9,19.0,43,30.47,10.0,North,11.5,20.7,N/A,,Overcast,10,2013-05-02 03:53:00
10:53 PM,37.9,19.9,48,30.50,10.0,NNE,12.7,19.6,N/A,,Partly Cloudy,30,2013-05-02 04:53:00
11:53 PM,36.0,19.9,52,30.52,10.0,ENE,9.2,-,N/A,,Clear,60,2013-05-02 05:53:00